User: anonymous   Login
Location: Unspecified
(0.0000°N, 0.0000°E)
Time: 07:16:14
(UTC+00:00)
Language:

AGILE - Orbit

View from above orbital plane
View from above orbital plane
View from above satellite
View from above satellite

Ground track
Ground track

The orbit data is extracted from the following two-line orbital elements,

1 31135U 07013A   15142.23258921  .00006258  00000-0  20099-3 0  9993
2 31135 002.4669 225.6069 0014407 135.9983 224.1218 15.24931079447743
Epoch (UTC): 22 May 2015 05:34:55
Eccentricity: 0.0014407
inclination: 2.4669°
perigee height: 481 km
apogee height: 501 km
right ascension of ascending node: 225.6069°
argument of perigee: 135.9983°
revolutions per day: 15.24931079
mean anomaly at epoch: 224.1218°
orbit number at epoch: 44774

The dashed part of the orbit path shows where the satellite is in the earth's shadow,  

DLR